Regional Weather Roundup
Issued by NWS

Home | Current Version | Previous Version | Text Only | Print | Product List | Glossary Off
Versions: 1 2 3 4 5 6 7 8 9 10 11 12 13 14 15 16 17 18 19 20 21 22 23 24 25 26 27 28 29 30 31 32 33 34 35 36 37 38 39 40 41 42 43 44 45 46 47 48 49 50

284
ASUS43 KDTX 252310
RWRMI
MICHIGAN HOURLY REGIONAL WEATHER ROUNDUP
NATIONAL WEATHER SERVICE DETROIT/PONTIAC MI
700 PM EDT MON JUL 25 2016

NOTE: "FAIR" INDICATES FEW OR NO CLOUDS BELOW 12,000 FEET WITH NO
SIGNIFICANT WEATHER AND/OR OBSTRUCTION TO VISIBILITY.

MIZ047>049-052>055-059>063-066>070-074>076-081>083-260000-
SOUTHEAST LOWER MICHIGAN

CITY           SKY/WX    TMP DP  RH WIND       PRES   REMARKS
ADRIAN         MOSUNNY   86  65  49 NW9       29.94S
ALMA           SUNNY     84  59  42 MISG      29.94S
ANN ARBOR      SUNNY     87  62  43 W10       29.92S
BAD AXE        MOSUNNY   84  56  38 NW10G16   29.90S
CARO           MOSUNNY   86  60  41 W8        29.90S
DETROIT CITY   SUNNY     88  62  41 W9        29.90R
DETROIT        MOSUNNY   89  62  40 NW12      29.91R
FLINT          SUNNY     89  60  37 NW14      29.92S
GROSSE ILE     MOSUNNY   88  64  44 NW7       29.89S HX  90
HILLSDALE      CLOUDY    82  64  55 W7        29.97S
HOWELL         SUNNY     85  61  43 NW10      29.94S

CITY           SKY/WX    TMP DP  RH WIND       PRES   REMARKS
JACKSON        SUNNY     83  65  54 W10       29.95S
LAMBERTVILLE   SUNNY     87  68  52 W7        29.93S HX  90
LANSING        SUNNY     85  60  42 W8        29.95S
LAPEER         FAIR      85  59  40 NW9G16    29.92R
MASON          SUNNY     84  62  46 NW9G17    29.94S
MONROE         SUNNY     86  67  53 NW10      29.90S
MT. CLEMENS    MOSUNNY   86  64  46 W13       29.88R
PONTIAC        MOSUNNY   85  63  47 W15       29.92S
PORT HURON     SUNNY     84  64  51 NW7       29.90R
TRI CITIES     SUNNY     85  60  42 W15       29.92S
MIDLAND        FAIR      84  57  39 W8        29.91S
TROY           SUNNY     89  59  36 W12       29.93R
SAGINAW HB     SUNNY     86  59  39 W10       29.91S
$$
MIZ043>046-050>051-056>058-064>065-071>073-077>080-260000-
SOUTHWEST LOWER MICHIGAN

CITY           SKY/WX    TMP DP  RH WIND       PRES   REMARKS
BATTLE CREEK   SUNNY     81  64  56 NW14      29.98S
BENTON HARBOR  SUNNY     80  61  52 NW3       29.99F
BIG RAPIDS     SUNNY     79  59  50 NW7       29.97S
COLDWATER      SUNNY     83  64  54 W9        29.97S
FREMONT        FAIR      81  60  49 NW12      29.98R
HOLLAND        SUNNY     79  64  60 W8        29.99F
GRAND RAPIDS   MOSUNNY   83  61  47 W14       29.96S
IONIA          FAIR      83  54  36 W12       29.94S
KALAMAZOO      SUNNY     82  61  48 NW10      29.98S
LUDINGTON      SUNNY     78  65  62 W5        29.96F
MARSHALL       SUNNY     84  63  48 W6        29.96R
MOUNT PLEASANT SUNNY     83  55  37 W9        29.94R
MUSKEGON       MOSUNNY   80  63  55 W7        29.98F
SOUTH HAVEN    SUNNY     77  66  69 W3        29.99S
$$
MIZ016>042-260000-
NORTHERN LOWER MICHIGAN

CITY           SKY/WX    TMP DP  RH WIND       PRES   REMARKS
ALPENA         MOSUNNY   81  54  39 NW13G22   29.90R
BEAVER ISLAND  SUNNY     75  59  58 N5        29.95F
BELLAIRE       SUNNY     78  59  52 W6        29.95S
CADILLAC       SUNNY     78  58  51 W10       29.98R
CHARLEVOIX     SUNNY     76  60  56 NW7       29.98S
FRANKFORT      SUNNY     77  64  64 SW5       29.96S
GAYLORD        MOSUNNY   76  58  53 VRB7      29.96S
GRAYLING       MOSUNNY   78  60  53 NW13G20   29.97R
HARBOR SPRINGS SUNNY     76  59  56 NW9       29.94S
HOUGHTON LAKE  MOSUNNY   80  57  45 NW15      29.96S
MANISTEE       SUNNY     81  62  52 W7        29.96S
OSCODA         SUNNY     83  57  39 NW14G21   29.88S
PELLSTON       SUNNY     76  56  49 NW20      29.95R
ROGERS CITY    MOSUNNY   73  58  61 NW14G21   29.92S
TRAVERSE CITY  MOSUNNY   82  56  40 NW12G20   29.93S
$$
MIZ007>008-015-260000-
EASTERN UPPER MICHIGAN

CITY           SKY/WX    TMP DP  RH WIND       PRES   REMARKS
KINROSS        MOSUNNY   72  58  61 NW16G22   29.92S
MACKINAC ISLAN MOSUNNY   71  57  61 NW12G18   29.93R
NEWBERRY       SUNNY     73  57  56 W13       29.94S
S. S. MARIE    SUNNY     72  58  61 NW15G24   29.91S
MUNISING         N/A     75  60  59 N5        29.93
$$
MIZ004>006-011>014-085-260000-
CENTRAL UPPER MICHIGAN

CITY           SKY/WX    TMP DP  RH WIND       PRES   REMARKS
MANISTIQUE     SUNNY     77  58  51 N9        29.94S
ESCANABA       MOSUNNY   82  55  39 NW8       29.92S
MENOMINEE      MOSUNNY  N/A N/A N/A N7        29.95S
SAWYER-GWINN   MOSUNNY   79  57  47 NE9G18    29.96S
$$
MIZ001>003-009>011-084-260000-
WESTERN UPPER MICHIGAN

CITY           SKY/WX    TMP DP  RH WIND       PRES   REMARKS
IRON MOUNTAIN  SUNNY     82  54  37 NW10      29.96S
HOUGHTON       SUNNY     77  58  51 W22       29.95S
COPPER HARBOR    N/A     79  59  50 VRB7      29.91F
IRONWOOD       SUNNY     79  61  53 NW7       29.97F
$$

ABBREVIATIONS USED IN REMARKS
   TC - TEMPERATURE IN CELSIUS
  WCI - WIND CHILL INDEX
   HX - HEAT INDEX
  VSB - VISIBILITY





USA.gov is the U.S. government's official web portal to all federal, state and local government web resources and services.